Temp_Advection
nan nan nan nan nan nan nan nan nan nan nan nan nan nan nan nan nan nan nan nan nan nan nan nan nan nan nan nan nan nan nan nan nan
nan 0 0 0 -0 -0 -0 -0 -0 -0 0 0 0 0 0 0 0 0 -0 -0 -0 -0 -0 -0 0 -0 0 -0 -0 -0 -0 -0 nan
nan 0 0 -0 -0 -0 -0 -0 0 0 0 0 0 0 -0 -0 0 0 0 -0 -0 -0 -0 -0 0 0 0 -0 -0 -0 -0 -0 nan
nan -0 -0 0 0 -0 -0 -0 0 -0 0 0 0 0 -0 -0 -0 -0 -0 -0 -0 -0 -0 -0 0 0 0 0 -0 -0 -0 -0 nan
nan 0 0 0 0 0 0 -0 0 0 0 0 0 0 0 -0 -0 -0 -0 0 -0 -0 -0 -0 0 0 0 0 0 -0 0 0 nan
nan 0 -0 -0 0 0 0 0 -0 0 0 0 0 0 -0 -0 0 -0 -0 -0 -0 -0 -0 -0 0 0 0 0 0 -0 0 0 nan
nan -0 -0 -0 0 -0 -0 -0 -0 -0 0 0 0 0 0 -0 -0 -0 -0 -0 -0 -0 -0 -0 -0 0 0 0 0 -0 0 0 nan
nan -0 -0 -0 -0 -0 0 0 -0 -0 -0 -0 0 0 -0 -0 -0 -0 -0 -0 -0 -0 -0 -0 -0 0 0 0 -0 0 0 0 nan
nan -0 -0 -0 -0 -0 -0 -0 -0 -0 -0 -0 -0 -0 -0 0 0 -0 -0 -0 -0 0 0 -0 -0 -0 0 0 0 -0 0 0 nan
nan -0 -0 -0 -0 -0 -0 -0 -0 -0 -0 -0 -0 -0 -0 -0 -0 0 0 -0 -0 0 0 -0 -0 -0 0 0 0 0 -0 0 nan
nan -1 -0 -1 -1 -1 -1 -1 -0 -0 -0 -0 -0 -0 -0 -0 -0 -0 0 -0 -0 0 0 0 -0 -0 0 0 0 0 0 0 nan
nan -1 -1 -1 -1 -1 -1 -1 -1 -1 -1 -0 -0 -0 -0 -1 -1 -0 -0 0 -0 0 0 0 0 -0 -0 0 0 0 0 0 nan
nan -1 -1 -1 -1 -1 -1 -1 -1 -1 -1 -1 -1 -0 -0 -1 -1 -0 -0 -0 -0 -0 0 1 0 -0 -0 0 0 0 -0 0 nan
nan -1 -1 -1 -1 -1 -1 -1 -2 -2 -2 -2 -1 -1 -1 -0 -0 -0 -0 -0 -0 -0 0 0 1 0 -0 0 -0 -0 0 0 nan
nan -1 -1 -2 -2 -2 -2 -2 -1 -2 -2 -3 -2 -1 -1 -1 -1 -0 0 0 -0 -1 0 0 0 0 0 0 -0 -0 0 0 nan
nan -1 -1 -1 -1 -2 -2 -2 -2 -2 -3 -4 -5 -2 -1 -1 -0 0 -1 -0 0 -0 -1 -0 -0 0 0 0 0 -0 0 0 nan
nan -0 -0 -0 -0 -1 -1 -2 -2 -2 -2 -4 -5 -6 -6 -2 -0 0 -0 -0 -0 -1 -0 0 -1 -0 -1 0 0 -0 0 -0 nan
nan -0 -0 -0 -0 0 0 -0 -1 -2 -1 -1 -1 -1 -2 -11 -8 -2 -0 -0 0 -0 -1 -0 -1 -0 -0 -0 -1 -0 0 0 nan
nan -0 -0 -0 -0 -0 0 0 0 -0 -1 -1 0 0 0 -1 -7 -11 -3 -2 -1 -0 0 -1 -1 -0 -0 -0 -1 -1 0 0 nan
nan nan nan nan nan nan nan nan nan nan nan nan nan nan nan nan nan nan nan nan nan nan nan nan nan nan nan nan nan nan nan nan nan
Wind_Speed
8 7 7 8 8 8 7 6 7 7 8 7 4 3 4 7 8 8 8 6 6 5 3 3 2 3 4 6 5 6 6 5 12
5 7 7 7 7 6 5 5 4 6 7 8 6 3 0 3 5 8 8 8 7 5 3 1 1 2 1 3 3 3 4 5 6
1 2 4 5 5 5 3 3 3 2 4 8 8 6 3 1 1 3 5 5 6 5 4 0 3 4 5 3 4 3 2 1 4
2 1 0 0 2 2 3 2 0 0 2 5 8 7 6 3 3 2 2 3 4 4 4 2 4 6 6 3 2 2 1 1 2
5 5 4 3 3 4 3 3 3 4 3 5 7 8 9 8 6 6 4 3 3 5 5 5 4 8 9 7 3 3 3 4 1
5 5 5 6 6 7 7 7 5 5 7 8 8 10 10 10 11 9 8 7 6 4 7 7 6 8 11 9 7 1 2 5 6
3 4 4 4 8 10 10 10 9 8 8 11 11 11 11 11 12 13 11 11 11 9 9 8 9 9 13 12 10 7 5 4 8
6 7 8 9 8 8 12 13 13 12 12 12 14 15 15 14 14 15 16 14 14 14 14 11 11 11 12 13 12 11 9 8 9
5 5 6 8 9 10 9 11 12 14 15 15 16 17 18 19 18 17 19 20 17 18 18 12 13 13 15 14 16 13 11 12 14
13 13 12 10 9 8 10 13 16 15 14 17 18 20 21 21 22 22 20 20 22 19 20 19 15 15 16 17 19 18 15 13 14
15 15 15 15 15 15 15 13 11 14 19 20 20 23 22 24 23 25 24 21 23 23 22 24 22 17 20 20 21 21 19 18 17
18 19 19 19 19 19 19 18 18 17 16 16 22 26 26 29 26 26 28 27 25 27 25 26 26 23 22 23 25 24 23 21 20
21 21 21 22 23 23 24 24 24 24 23 22 20 19 20 25 31 31 29 29 32 28 28 26 30 29 25 24 25 27 27 25 23
24 25 26 26 25 25 26 27 28 30 29 28 26 23 22 21 22 23 28 31 32 37 34 33 29 31 31 28 27 28 29 29 27
21 23 24 26 28 29 29 28 27 30 33 34 32 28 25 24 22 23 22 24 27 31 37 38 34 33 34 33 31 30 30 31 29
27 25 24 23 24 25 28 30 31 31 33 36 38 33 26 23 20 17 21 24 21 23 30 38 38 38 37 37 36 34 32 34 33
22 25 28 30 30 27 27 27 28 29 30 32 30 25 35 20 14 16 16 15 19 24 27 22 27 37 39 39 39 38 38 36 36
20 21 22 24 27 30 31 30 28 27 25 24 17 11 10 41 33 25 26 25 23 21 22 28 32 26 26 40 43 43 42 39 39
16 17 19 21 24 25 26 27 29 28 25 23 20 17 17 13 26 41 36 36 32 31 24 25 25 31 38 35 43 48 45 43 41
16 17 18 19 20 21 23 25 25 25 25 24 24 24 24 19 18 32 46 43 40 41 41 34 32 26 23 32 22 38 52 43 43
Wind_Direction
94 85 60 57 56 64 71 88 111 124 141 145 126 113 100 81 77 64 53 56 58 56 73 93 84 69 43 73 60 48 62 108 122
99 110 101 87 58 52 63 75 95 130 150 172 173 194 186 78 92 76 50 41 40 43 60 135 205 130 291 27 29 13 30 91 138
92 101 118 107 109 111 61 52 64 103 175 191 201 220 233 267 182 73 64 44 31 30 31 142 211 251 198 285 318 344 38 133 186
247 253 333 178 153 139 152 141 102 27 171 204 207 223 242 253 232 279 15 35 25 353 356 343 225 232 233 231 312 350 102 108 148
227 248 255 250 242 234 240 253 244 200 208 205 223 227 230 239 251 256 266 289 308 317 316 306 263 225 236 212 247 310 137 191 275
253 254 268 251 248 253 259 262 258 231 222 210 216 230 242 249 248 250 259 269 281 288 322 288 280 238 227 223 213 177 288 227 228
311 279 281 267 259 256 253 252 255 248 242 240 230 224 233 247 251 253 257 258 270 279 310 297 278 248 227 228 209 218 247 255 229
308 291 277 268 265 265 259 259 258 255 250 245 243 244 241 239 249 250 249 257 264 271 271 293 287 260 229 227 215 225 219 256 256
16 11 332 302 293 286 295 283 274 267 266 264 249 248 249 248 243 246 248 251 253 258 262 260 279 264 249 230 218 226 239 255 266
15 12 7 358 354 334 305 290 285 286 282 271 273 263 252 252 250 242 246 253 244 252 256 261 264 265 249 240 239 245 243 252 255
4 360 355 350 348 344 337 330 316 296 286 279 278 272 271 262 254 251 249 248 245 245 256 254 261 259 252 253 248 244 244 246 247
359 353 349 346 342 337 331 325 321 311 301 290 277 274 276 267 266 260 254 249 248 245 250 251 256 259 253 254 254 246 240 246 246
352 348 344 341 337 333 329 324 319 315 311 303 292 285 282 276 269 264 261 258 253 249 254 250 254 259 258 255 253 250 242 246 245
341 339 337 335 331 327 326 325 324 319 312 306 303 300 295 287 278 278 266 262 259 255 252 254 252 256 258 256 254 252 250 246 242
342 337 333 330 327 325 324 324 322 322 318 312 304 302 300 296 290 276 270 268 262 260 253 252 252 253 253 256 257 256 254 247 246
342 344 343 341 338 336 331 327 326 325 322 314 301 298 299 291 285 277 276 264 265 267 262 254 250 252 251 255 256 257 254 251 249
332 332 334 336 339 341 340 339 334 332 338 340 337 326 308 290 274 264 281 275 270 260 255 254 264 255 254 253 250 255 257 253 250
325 326 327 329 330 332 336 340 343 342 339 345 350 340 317 313 299 278 278 277 275 275 264 258 253 250 263 257 253 253 252 255 252
308 310 313 317 320 323 327 331 335 338 340 335 328 322 313 319 313 294 287 287 286 277 273 268 261 254 251 256 258 256 247 252 252
297 298 300 303 306 310 316 321 327 330 331 332 328 322 316 315 291 304 300 288 287 286 281 278 278 271 262 247 258 268 254 247 249
Height
1563 1564 1564 1563 1563 1563 1563 1563 1564 1564 1565 1565 1566 1566 1566 1567 1567 1568 1568 1568 1568 1568 1568 1568 1569 1569 1569 1569 1569 1569 1570 1571 1571
1564 1564 1563 1563 1564 1564 1565 1565 1565 1566 1566 1566 1566 1566 1567 1568 1568 1568 1568 1569 1569 1569 1568 1568 1569 1570 1569 1570 1570 1570 1570 1571 1572
1565 1564 1564 1563 1563 1563 1565 1565 1566 1567 1567 1567 1567 1568 1568 1569 1569 1569 1568 1569 1569 1569 1569 1569 1569 1569 1570 1570 1571 1571 1571 1571 1572
1564 1564 1564 1563 1564 1564 1564 1564 1565 1566 1566 1568 1567 1568 1569 1569 1569 1569 1569 1569 1569 1569 1569 1569 1569 1569 1570 1570 1571 1571 1571 1571 1572
1563 1563 1563 1563 1563 1564 1564 1564 1564 1563 1565 1566 1567 1567 1568 1568 1569 1569 1569 1569 1569 1569 1569 1568 1568 1568 1569 1570 1571 1571 1572 1573 1573
1562 1561 1561 1562 1562 1562 1563 1564 1564 1563 1563 1563 1564 1566 1567 1567 1568 1568 1568 1568 1568 1568 1568 1568 1567 1567 1568 1569 1570 1571 1572 1573 1574
1561 1560 1561 1561 1561 1561 1562 1561 1562 1562 1562 1563 1563 1563 1564 1565 1566 1567 1567 1567 1567 1567 1567 1567 1567 1566 1566 1567 1569 1570 1572 1573 1573
1560 1560 1560 1560 1559 1559 1560 1560 1560 1560 1559 1560 1561 1562 1561 1562 1563 1564 1565 1565 1566 1566 1566 1566 1565 1566 1565 1566 1567 1568 1569 1570 1571
1560 1559 1559 1559 1558 1557 1557 1557 1558 1558 1558 1557 1557 1558 1559 1560 1560 1560 1561 1562 1563 1563 1563 1564 1564 1564 1564 1564 1566 1567 1567 1568 1568
1560 1559 1557 1557 1556 1555 1555 1555 1555 1554 1555 1555 1554 1554 1554 1556 1557 1557 1557 1558 1559 1560 1560 1561 1561 1561 1562 1562 1564 1565 1565 1565 1566
1560 1559 1558 1558 1556 1554 1553 1552 1551 1552 1551 1551 1551 1550 1550 1551 1552 1553 1554 1555 1555 1556 1557 1557 1558 1559 1559 1560 1560 1561 1562 1563 1563
1560 1559 1557 1556 1555 1554 1553 1551 1549 1548 1547 1547 1546 1546 1546 1547 1547 1548 1548 1550 1551 1552 1553 1553 1554 1555 1556 1556 1557 1557 1559 1560 1561
1559 1558 1557 1555 1553 1551 1550 1548 1546 1545 1543 1542 1542 1541 1541 1541 1542 1542 1543 1544 1545 1547 1549 1549 1549 1550 1552 1552 1553 1553 1554 1556 1557
1559 1557 1554 1552 1551 1550 1548 1545 1542 1539 1538 1537 1537 1536 1536 1536 1536 1536 1536 1537 1538 1540 1541 1544 1545 1545 1546 1547 1549 1549 1550 1551 1552
1558 1557 1554 1552 1549 1546 1544 1543 1542 1537 1532 1530 1530 1532 1532 1531 1531 1529 1529 1529 1530 1531 1533 1536 1537 1539 1540 1542 1543 1544 1545 1546 1548
1553 1553 1552 1551 1548 1545 1542 1539 1535 1534 1529 1525 1522 1523 1526 1526 1526 1524 1523 1522 1521 1523 1525 1527 1529 1531 1533 1535 1536 1538 1540 1541 1542
1555 1552 1549 1545 1544 1543 1541 1538 1535 1534 1529 1524 1520 1514 1514 1516 1520 1519 1519 1517 1516 1516 1516 1516 1518 1522 1524 1525 1528 1530 1532 1535 1536
1554 1552 1550 1547 1544 1540 1537 1535 1533 1532 1532 1530 1528 1523 1517 1508 1507 1513 1512 1512 1511 1510 1509 1509 1510 1511 1514 1517 1519 1522 1524 1526 1528
1553 1551 1549 1547 1545 1542 1539 1535 1532 1529 1529 1530 1528 1528 1525 1519 1501 1499 1504 1503 1505 1503 1505 1501 1503 1505 1506 1508 1511 1512 1515 1517 1520
1551 1549 1547 1545 1542 1540 1537 1534 1532 1529 1528 1526 1524 1523 1521 1519 1514 1498 1493 1495 1497 1497 1495 1498 1497 1498 1498 1500 1499 1501 1503 1507 1510